| time (UTC) | temp C | wind direction | speed KPH | gust KPH | rain 1hr cm | rain 24hr cm | rain mn cm | humidity % | barometer mb |
| 20260506104425 | 11 | 336 | 11.3 | 17.7 | 0.00 | 0.00 | 0.00 | 80 | 1009.9 |
| 20260506103923 | 12 | 326 | 6.4 | 14.5 | 0.00 | 0.00 | 0.00 | 80 | 1009.7 |
| 20260506103420 | 12 | 310 | 9.7 | 16.1 | 0.00 | 0.00 | 0.00 | 80 | 1009.6 |
| 20260506102917 | 12 | 347 | 8.0 | 16.1 | 0.00 | 0.00 | 0.00 | 80 | 1010.0 |
| 20260506102415 | 12 | 310 | 8.0 | 9.7 | 0.00 | 0.00 | 0.00 | 80 | 1009.6 |
| 20260506101912 | 12 | 344 | 11.3 | 12.9 | 0.00 | 0.00 | 0.00 | 80 | 1009.6 |
| 20260506101408 | 12 | 318 | 6.4 | 14.5 | 0.00 | 0.00 | 0.00 | 79 | 1009.4 |
| 20260506100906 | 12 | 324 | 8.0 | 9.7 | 0.00 | 0.00 | 0.00 | 79 | 1009.6 |
| 20260506100404 | 12 | 325 | 12.9 | 16.1 | 0.00 | 0.00 | 0.00 | 79 | 1009.3 |
| 20260506095902 | 12 | 291 | 4.8 | 14.5 | 0.00 | 0.00 | 0.00 | 79 | 1009.4 |
| 20260506095400 | 12 | 3 | 6.4 | 12.9 | 0.00 | 0.00 | 0.00 | 79 | 1009.4 |
| 20260506094856 | 12 | 357 | 3.2 | 12.9 | 0.00 | 0.00 | 0.00 | 79 | 1009.4 |
| 20260506094355 | 12 | 313 | 6.4 | 16.1 | 0.00 | 0.00 | 0.00 | 78 | 1009.0 |
| 20260506093852 | 12 | 301 | 8.0 | 17.7 | 0.00 | 0.00 | 0.00 | 78 | 1009.1 |
| 20260506093350 | 12 | 21 | 4.8 | 11.3 | 0.00 | 0.00 | 0.00 | 78 | 1009.3 |
| 20260506092847 | 12 | 307 | 3.2 | 12.9 | 0.00 | 0.00 | 0.00 | 78 | 1009.3 |
| 20260506092345 | 12 | 13 | 11.3 | 12.9 | 0.00 | 0.00 | 0.00 | 78 | 1009.2 |
| 20260506091841 | 12 | 356 | 8.0 | 14.5 | 0.00 | 0.00 | 0.00 | 78 | 1008.9 |
| 20260506091339 | 12 | 343 | 8.0 | 11.3 | 0.00 | 0.00 | 0.00 | 78 | 1008.8 |
| 20260506090836 | 12 | 308 | 6.4 | 12.9 | 0.00 | 0.00 | 0.00 | 78 | 1009.1 |
| 20260506090334 | 12 | 5 | 3.2 | 9.7 | 0.00 | 0.00 | 0.00 | 78 | 1008.6 |
| 20260506085830 | 12 | 4 | 3.2 | 9.7 | 0.00 | 0.00 | 0.00 | 78 | 1008.6 |
| 20260506085326 | 12 | 328 | 4.8 | 11.3 | 0.00 | 0.00 | 0.00 | 78 | 1008.8 |
| 20260506084823 | 12 | 318 | 6.4 | 11.3 | 0.00 | 0.00 | 0.00 | 78 | 1008.9 |
| 20260506084320 | 12 | 341 | 4.8 | 12.9 | 0.00 | 0.00 | 0.00 | 77 | 1008.7 |
| 20260506083817 | 13 | 357 | 6.4 | 14.5 | 0.00 | 0.00 | 0.00 | 77 | 1008.5 |
| 20260506083314 | 13 | 317 | 3.2 | 6.4 | 0.00 | 0.00 | 0.00 | 78 | 1008.6 |
| 20260506082812 | 13 | 326 | 4.8 | 6.4 | 0.00 | 0.00 | 0.00 | 78 | 1008.6 |
| 20260506082308 | 13 | 343 | 4.8 | 6.4 | 0.00 | 0.00 | 0.00 | 79 | 1008.6 |
| 20260506081805 | 13 | 325 | 3.2 | 6.4 | 0.00 | 0.00 | 0.00 | 79 | 1008.5 |
| 20260506081302 | 13 | 327 | 3.2 | 6.4 | 0.00 | 0.00 | 0.00 | 79 | 1008.5 |
| 20260506080800 | 13 | 26 | 3.2 | 6.4 | 0.00 | 0.00 | 0.00 | 78 | 1008.1 |
| 20260506080256 | 13 | 0 | 4.8 | 11.3 | 0.00 | 0.00 | 0.00 | 78 | 1008.3 |
| 20260506073240 | 13 | 346 | 6.4 | 11.3 | 0.00 | 0.00 | 0.00 | 79 | 1008.5 |
| 20260506072737 | 13 | 335 | 4.8 | 12.9 | 0.00 | 0.00 | 0.00 | 79 | 1008.5 |
| 20260506072235 | 13 | 320 | 6.4 | 12.9 | 0.00 | 0.00 | 0.00 | 79 | 1008.6 |
| 20260506071732 | 13 | 37 | 6.4 | 12.9 | 0.00 | 0.00 | 0.00 | 80 | 1008.6 |
| 20260506071230 | 13 | 333 | 6.4 | 9.7 | 0.00 | 0.00 | 0.00 | 80 | 1008.6 |
| 20260506070727 | 13 | 308 | 6.4 | 11.3 | 0.00 | 0.00 | 0.00 | 80 | 1008.3 |
| 20260506070224 | 13 | 335 | 3.2 | 14.5 | 0.00 | 0.00 | 0.00 | 79 | 1008.7 |
| 20260506062200 | 14 | 317 | 8.0 | 11.3 | 0.00 | 0.00 | 0.00 | 80 | 1008.5 |
| 20260506061656 | 14 | 328 | 11.3 | 14.5 | 0.00 | 0.00 | 0.00 | 80 | 1008.2 |
| 20260506061154 | 14 | 340 | 8.0 | 17.7 | 0.00 | 0.00 | 0.00 | 80 | 1008.6 |
| 20260506060653 | 14 | 354 | 6.4 | 12.9 | 0.00 | 0.00 | 0.00 | 80 | 1008.5 |
| 20260506060149 | 14 | 303 | 4.8 | 14.5 | 0.00 | 0.00 | 0.00 | 81 | 1008.4 |
| 20260506051121 | 15 | 322 | 6.4 | 14.5 | 0.00 | 0.00 | 0.00 | 82 | 1008.2 |
| 20260506050619 | 15 | 324 | 8.0 | 11.3 | 0.00 | 0.00 | 0.00 | 82 | 1008.2 |
| 20260506050116 | 15 | 315 | 8.0 | 11.3 | 0.00 | 0.00 | 0.00 | 82 | 1008.3 |
| 20260506045109 | 15 | 352 | 6.4 | 12.9 | 0.00 | 0.08 | 0.08 | 82 | 1008.2 |
| 20260506044607 | 15 | 305 | 6.4 | 14.5 | 0.00 | 0.08 | 0.08 | 82 | 1008.0 |
| 20260506044104 | 15 | 339 | 11.3 | 16.1 | 0.00 | 0.08 | 0.08 | 82 | 1008.1 |
| 20260506043601 | 15 | 323 | 9.7 | 12.9 | 0.00 | 0.08 | 0.08 | 82 | 1008.1 |
| 20260506043059 | 15 | 339 | 4.8 | 11.3 | 0.00 | 0.08 | 0.08 | 82 | 1008.0 |
| 20260506042558 | 15 | 349 | 8.0 | 14.5 | 0.00 | 0.08 | 0.08 | 81 | 1007.9 |
| 20260506042056 | 15 | 330 | 8.0 | 16.1 | 0.00 | 0.08 | 0.08 | 82 | 1007.8 |
| 20260506041554 | 15 | 357 | 9.7 | 17.7 | 0.00 | 0.08 | 0.08 | 82 | 1007.8 |
| 20260506041050 | 16 | 16 | 11.3 | 22.5 | 0.00 | 0.08 | 0.08 | 82 | 1008.1 |
| 20260506040549 | 16 | 344 | 16.1 | 20.9 | 0.00 | 0.08 | 0.08 | 82 | 1007.9 |
| 20260506040044 | 16 | 341 | 11.3 | 14.5 | 0.00 | 0.08 | 0.08 | 82 | 1007.6 |
| 20260506035542 | 16 | 315 | 14.5 | 20.9 | 0.00 | 0.08 | 0.08 | 81 | 1007.5 |
| 20260506035038 | 16 | 6 | 9.7 | 12.9 | 0.00 | 0.08 | 0.08 | 81 | 1007.3 |
| 20260506034536 | 17 | 302 | 4.8 | 22.5 | 0.00 | 0.08 | 0.08 | 82 | 1007.6 |
| 20260506034032 | 17 | 38 | 6.4 | 9.7 | 0.00 | 0.08 | 0.08 | 81 | 1007.2 |
| 20260506033530 | 17 | 24 | 6.4 | 14.5 | 0.00 | 0.08 | 0.08 | 80 | 1007.1 |
| 20260506033027 | 18 | 351 | 8.0 | 20.9 | 0.00 | 0.08 | 0.08 | 80 | 1007.0 |
| 20260506032524 | 18 | 14 | 6.4 | 12.9 | 0.00 | 0.08 | 0.08 | 80 | 1006.9 |
| 20260506032020 | 18 | 347 | 8.0 | 14.5 | 0.00 | 0.08 | 0.08 | 80 | 1006.9 |
| 20260506031518 | 19 | 355 | 14.5 | 20.9 | 0.00 | 0.08 | 0.08 | 80 | 1006.9 |
| 20260506031015 | 19 | 299 | 4.8 | 11.3 | 0.00 | 0.08 | 0.08 | 81 | 1006.9 |
| 20260506030513 | 19 | 328 | 9.7 | 14.5 | 0.00 | 0.08 | 0.08 | 80 | 1006.7 |
| 20260506030010 | 20 | 327 | 9.7 | 16.1 | 0.00 | 0.08 | 0.08 | 80 | 1006.5 |
| 20260506025507 | 20 | 34 | 6.4 | 17.7 | 0.00 | 0.08 | 0.08 | 81 | 1006.0 |
| 20260506025003 | 20 | 315 | 8.0 | 12.9 | 0.00 | 0.08 | 0.08 | 81 | 1006.0 |
| 20260506024500 | 20 | 326 | 4.8 | 11.3 | 0.00 | 0.08 | 0.08 | 81 | 1005.7 |
| 20260506023956 | 20 | 320 | 9.7 | 16.1 | 0.00 | 0.08 | 0.08 | 80 | 1005.7 |
| 20260506023453 | 20 | 336 | 9.7 | 24.1 | 0.00 | 0.08 | 0.08 | 80 | 1005.6 |
| 20260506022949 | 20 | 328 | 8.0 | 11.3 | 0.00 | 0.08 | 0.08 | 82 | 1005.6 |
| 20260506022447 | 21 | 304 | 1.6 | 4.8 | 0.00 | 0.08 | 0.08 | 82 | 1005.2 |
| 20260506021945 | 21 | 32 | 3.2 | 9.7 | 0.00 | 0.08 | 0.08 | 82 | 1005.0 |
| 20260506021442 | 21 | 320 | 3.2 | 4.8 | 0.00 | 0.08 | 0.08 | 81 | 1005.2 |
| 20260506020939 | 21 | 9 | 4.8 | 11.3 | 0.00 | 0.08 | 0.08 | 81 | 1005.3 |
| 20260506020437 | 21 | 340 | 3.2 | 11.3 | 0.00 | 0.08 | 0.08 | 81 | 1005.0 |
| 20260506015934 | 21 | 316 | 4.8 | 9.7 | 0.00 | 0.08 | 0.08 | 81 | 1005.4 |
| 20260506015431 | 22 | 354 | 4.8 | 6.4 | 0.00 | 0.08 | 0.08 | 80 | 1004.6 |
| 20260506014928 | 22 | 333 | 3.2 | 4.8 | 0.00 | 0.08 | 0.08 | 80 | 1004.8 |
| 20260506014425 | 22 | 329 | 3.2 | 4.8 | 0.00 | 0.08 | 0.08 | 81 | 1004.5 |
| 20260506013921 | 22 | 305 | 3.2 | 6.4 | 0.00 | 0.08 | 0.08 | 82 | 1005.1 |
| 20260506013420 | 22 | 244 | 3.2 | 4.8 | 0.00 | 0.08 | 0.08 | 81 | 1005.2 |
| 20260506012915 | 22 | 317 | 1.6 | 3.2 | 0.00 | 0.08 | 0.08 | 80 | 1004.7 |
| 20260506012412 | 22 | 305 | 0.0 | 1.6 | 0.00 | 0.08 | 0.08 | 80 | 1004.5 |
| 20260506011909 | 22 | 265 | 1.6 | 3.2 | 0.00 | 0.08 | 0.08 | 79 | 1004.5 |
| 20260506011406 | 22 | 296 | 3.2 | 4.8 | 0.00 | 0.08 | 0.08 | 78 | 1004.4 |
| 20260506010903 | 23 | 326 | 3.2 | 6.4 | 0.00 | 0.08 | 0.08 | 76 | 1004.2 |
| 20260506010402 | 23 | 16 | 3.2 | 4.8 | 0.00 | 0.08 | 0.08 | 75 | 1004.2 |
| 20260506005858 | 23 | 312 | 4.8 | 6.4 | 0.00 | 0.08 | 0.08 | 75 | 1004.3 |
| 20260506005355 | 23 | 297 | 6.4 | 6.4 | 0.00 | 0.08 | 0.08 | 76 | 1004.4 |
| 20260506004850 | 23 | 218 | 3.2 | 6.4 | 0.00 | 0.08 | 0.08 | 79 | 1004.2 |
| 20260506004349 | 24 | 229 | 8.0 | 9.7 | 0.00 | 0.08 | 0.08 | 85 | 1004.1 |
| 20260506003845 | 24 | 235 | 9.7 | 11.3 | 0.00 | 0.08 | 0.08 | 87 | 1004.1 |
| 20260506003341 | 24 | 280 | 8.0 | 11.3 | 0.00 | 0.08 | 0.08 | 88 | 1004.2 |
| 20260506002838 | 24 | 280 | 8.0 | 11.3 | 0.18 | 0.08 | 0.08 | 86 | 1004.3 |
| 20260506002334 | 25 | 268 | 4.8 | 6.4 | 0.30 | 0.08 | 0.08 | 84 | 1004.0 |
| 20260506001829 | 25 | 203 | 3.2 | 6.4 | 0.30 | 0.05 | 0.05 | 82 | 1003.7 |
| 20260506001327 | 26 | 184 | 8.0 | 16.1 | 0.18 | 0.03 | 0.03 | 78 | 1003.6 |
| 20260506000824 | 26 | 172 | 8.0 | 17.7 | 0.00 | 0.00 | 0.00 | 75 | 1003.2 |
| 20260506000323 | 26 | 181 | 8.0 | 14.5 | 0.00 | 0.00 | 0.00 | 74 | 1003.2 |
| 20260505235818 | 27 | 180 | 6.4 | 12.9 | 0.00 | 0.00 | 0.00 | 74 | 1003.0 |
| 20260505235316 | 27 | 165 | 9.7 | 17.7 | 0.00 | 0.00 | 0.00 | 73 | 1003.2 |
| 20260505234812 | 27 | 197 | 6.4 | 14.5 | 0.00 | 0.00 | 0.00 | 73 | 1003.3 |
| 20260505234310 | 27 | 158 | 6.4 | 17.7 | 0.00 | 0.00 | 0.00 | 72 | 1003.3 |
| 20260505233807 | 27 | 188 | 9.7 | 12.9 | 0.00 | 0.00 | 0.00 | 72 | 1003.2 |
| 20260505233305 | 27 | 160 | 9.7 | 16.1 | 0.00 | 0.00 | 0.00 | 71 | 1003.0 |
| 20260505232802 | 27 | 160 | 9.7 | 16.1 | 0.00 | 0.00 | 0.00 | 71 | 1003.3 |
| 20260505232259 | 27 | 198 | 9.7 | 17.7 | 0.00 | 0.00 | 0.00 | 71 | 1003.0 |
| 20260505231755 | 27 | 101 | 14.5 | 20.9 | 0.00 | 0.00 | 0.00 | 70 | 1002.9 |
| 20260505231254 | 27 | 176 | 16.1 | 20.9 | 0.00 | 0.00 | 0.00 | 70 | 1003.0 |
| 20260505230752 | 28 | 165 | 8.0 | 17.7 | 0.00 | 0.00 | 0.00 | 70 | 1002.9 |
| 20260505230249 | 28 | 161 | 17.7 | 20.9 | 0.00 | 0.00 | 0.00 | 68 | 1002.9 |
| 20260505225745 | 28 | 165 | 14.5 | 22.5 | 0.00 | 0.00 | 0.00 | 68 | 1002.9 |
| 20260505225243 | 28 | 151 | 11.3 | 14.5 | 0.00 | 0.00 | 0.00 | 69 | 1002.9 |
| 20260505224737 | 28 | 228 | 11.3 | 24.1 | 0.00 | 0.00 | 0.00 | 69 | 1002.9 |
| 20260505224235 | 28 | 173 | 14.5 | 24.1 | 0.00 | 0.00 | 0.00 | 68 | 1002.6 |
| 20260505223733 | 29 | 186 | 17.7 | 22.5 | 0.00 | 0.00 | 0.00 | 66 | 1002.5 |
| 20260505223229 | 29 | 186 | 14.5 | 24.1 | 0.00 | 0.00 | 0.00 | 66 | 1002.3 |
| 20260505222725 | 28 | 153 | 14.5 | 24.1 | 0.00 | 0.00 | 0.00 | 67 | 1002.5 |
| 20260505222221 | 29 | 147 | 11.3 | 17.7 | 0.00 | 0.00 | 0.00 | 67 | 1002.7 |
| 20260505221719 | 29 | 174 | 11.3 | 16.1 | 0.00 | 0.00 | 0.00 | 65 | 1002.5 |
| 20260505221215 | 30 | 155 | 16.1 | 20.9 | 0.00 | 0.00 | 0.00 | 65 | 1002.9 |
| 20260505220712 | 30 | 179 | 17.7 | 20.9 | 0.00 | 0.00 | 0.00 | 65 | 1002.7 |
| 20260505220210 | 30 | 183 | 9.7 | 20.9 | 0.00 | 0.00 | 0.00 | 66 | 1002.6 |
| 20260505215708 | 30 | 147 | 12.9 | 14.5 | 0.00 | 0.00 | 0.00 | 66 | 1002.9 |
| 20260505215205 | 29 | 194 | 14.5 | 17.7 | 0.00 | 0.00 | 0.00 | 65 | 1002.9 |
| 20260505214703 | 28 | 169 | 9.7 | 17.7 | 0.00 | 0.00 | 0.00 | 66 | 1002.7 |
| 20260505214200 | 29 | 187 | 6.4 | 17.7 | 0.00 | 0.00 | 0.00 | 66 | 1002.9 |
| 20260505213657 | 29 | 189 | 16.1 | 20.9 | 0.00 | 0.00 | 0.00 | 64 | 1002.7 |
| 20260505213154 | 29 | 182 | 14.5 | 17.7 | 0.00 | 0.00 | 0.00 | 65 | 1002.9 |
| 20260505212650 | 29 | 199 | 16.1 | 22.5 | 0.00 | 0.00 | 0.00 | 65 | 1003.2 |
| 20260505212148 | 29 | 164 | 14.5 | 20.9 | 0.00 | 0.00 | 0.00 | 65 | 1003.0 |
| 20260505211644 | 29 | 185 | 14.5 | 24.1 | 0.00 | 0.00 | 0.00 | 65 | 1002.9 |
| 20260505211142 | 29 | 186 | 11.3 | 22.5 | 0.00 | 0.00 | 0.00 | 65 | 1003.0 |
| 20260505210638 | 28 | 194 | 17.7 | 22.5 | 0.00 | 0.00 | 0.00 | 66 | 1003.1 |
| 20260505210135 | 28 | 188 | 14.5 | 20.9 | 0.00 | 0.00 | 0.00 | 67 | 1003.1 |
| 20260505205632 | 28 | 224 | 17.7 | 25.7 | 0.00 | 0.00 | 0.00 | 67 | 1003.3 |
| 20260505205131 | 28 | 214 | 12.9 | 24.1 | 0.00 | 0.00 | 0.00 | 67 | 1003.4 |
| 20260505204627 | 28 | 175 | 12.9 | 20.9 | 0.00 | 0.00 | 0.00 | 68 | 1003.4 |
| 20260505204125 | 28 | 196 | 16.1 | 22.5 | 0.00 | 0.00 | 0.00 | 67 | 1003.5 |
| 20260505203621 | 28 | 184 | 14.5 | 27.4 | 0.00 | 0.00 | 0.00 | 65 | 1003.5 |
| 20260505203119 | 28 | 196 | 19.3 | 25.7 | 0.00 | 0.00 | 0.00 | 66 | 1003.4 |
| 20260505202614 | 28 | 138 | 24.1 | 27.4 | 0.00 | 0.00 | 0.00 | 67 | 1003.4 |
| 20260505202111 | 28 | 177 | 14.5 | 25.7 | 0.00 | 0.00 | 0.00 | 67 | 1003.5 |
| 20260505201607 | 28 | 184 | 17.7 | 27.4 | 0.00 | 0.00 | 0.00 | 68 | 1003.5 |
| 20260505201105 | 28 | 193 | 17.7 | 20.9 | 0.00 | 0.00 | 0.00 | 69 | 1003.5 |
| 20260505200603 | 28 | 180 | 22.5 | 27.4 | 0.00 | 0.00 | 0.00 | 69 | 1003.6 |
| 20260505200059 | 28 | 215 | 17.7 | 24.1 | 0.00 | 0.00 | 0.00 | 69 | 1003.9 |
| 20260505195555 | 27 | 145 | 19.3 | 24.1 | 0.00 | 0.00 | 0.00 | 68 | 1003.6 |
| 20260505195053 | 27 | 193 | 16.1 | 24.1 | 0.00 | 0.00 | 0.00 | 68 | 1003.7 |
| 20260505194550 | 27 | 213 | 17.7 | 25.7 | 0.00 | 0.00 | 0.00 | 69 | 1003.6 |
| 20260505194046 | 27 | 194 | 19.3 | 27.4 | 0.00 | 0.00 | 0.00 | 68 | 1003.7 |
| 20260505193543 | 27 | 185 | 12.9 | 25.7 | 0.00 | 0.00 | 0.00 | 69 | 1003.7 |
| 20260505193040 | 27 | 197 | 20.9 | 25.7 | 0.00 | 0.00 | 0.00 | 69 | 1003.6 |
| 20260505192539 | 27 | 193 | 19.3 | 33.8 | 0.00 | 0.00 | 0.00 | 69 | 1003.6 |
| 20260505192036 | 27 | 173 | 16.1 | 24.1 | 0.00 | 0.00 | 0.00 | 71 | 1003.7 |
| 20260505191534 | 27 | 184 | 17.7 | 27.4 | 0.00 | 0.00 | 0.00 | 71 | 1003.7 |
| 20260505191032 | 27 | 187 | 19.3 | 29.0 | 0.00 | 0.00 | 0.00 | 70 | 1003.8 |
| 20260505190532 | 26 | 203 | 17.7 | 24.1 | 0.00 | 0.00 | 0.00 | 71 | 1003.8 |
| 20260505190028 | 26 | 157 | 14.5 | 27.4 | 0.00 | 0.00 | 0.00 | 71 | 1003.9 |
| 20260505185525 | 26 | 205 | 20.9 | 29.0 | 0.00 | 0.00 | 0.00 | 72 | 1004.0 |
| 20260505185021 | 26 | 192 | 20.9 | 27.4 | 0.00 | 0.00 | 0.00 | 72 | 1004.2 |
| 20260505184518 | 26 | 197 | 14.5 | 27.4 | 0.00 | 0.00 | 0.00 | 71 | 1004.0 |
| 20260505184015 | 26 | 199 | 22.5 | 27.4 | 0.00 | 0.00 | 0.00 | 71 | 1003.9 |
| 20260505183513 | 26 | 196 | 22.5 | 33.8 | 0.00 | 0.00 | 0.00 | 70 | 1003.9 |
| 20260505183010 | 27 | 195 | 16.1 | 25.7 | 0.00 | 0.00 | 0.00 | 70 | 1003.9 |
| 20260505182506 | 27 | 195 | 17.7 | 24.1 | 0.00 | 0.00 | 0.00 | 69 | 1004.1 |
| 20260505182002 | 26 | 211 | 14.5 | 20.9 | 0.00 | 0.00 | 0.00 | 71 | 1003.9 |
| 20260505181459 | 26 | 204 | 12.9 | 27.4 | 0.00 | 0.00 | 0.00 | 70 | 1003.8 |
| 20260505180956 | 27 | 147 | 20.9 | 30.6 | 0.00 | 0.00 | 0.00 | 69 | 1003.7 |
| 20260505180452 | 27 | 188 | 19.3 | 30.6 | 0.00 | 0.00 | 0.00 | 69 | 1003.8 |
| 20260505175949 | 26 | 198 | 14.5 | 33.8 | 0.00 | 0.00 | 0.00 | 71 | 1003.9 |
| 20260505175445 | 26 | 192 | 27.4 | 30.6 | 0.00 | 0.00 | 0.00 | 70 | 1003.7 |
| 20260505174942 | 26 | 159 | 17.7 | 30.6 | 0.00 | 0.00 | 0.00 | 70 | 1003.9 |
| 20260505174439 | 26 | 185 | 22.5 | 30.6 | 0.00 | 0.00 | 0.00 | 71 | 1003.9 |
| 20260505173935 | 26 | 215 | 20.9 | 27.4 | 0.00 | 0.00 | 0.00 | 71 | 1003.9 |
| 20260505173432 | 26 | 188 | 22.5 | 33.8 | 0.00 | 0.00 | 0.00 | 71 | 1004.0 |
| 20260505172929 | 26 | 190 | 17.7 | 27.4 | 0.00 | 0.00 | 0.00 | 72 | 1004.3 |
| 20260505172427 | 25 | 193 | 19.3 | 30.6 | 0.00 | 0.00 | 0.00 | 72 | 1004.1 |
| 20260505171926 | 25 | 213 | 16.1 | 33.8 | 0.00 | 0.00 | 0.00 | 72 | 1004.2 |
| 20260505171424 | 26 | 162 | 22.5 | 27.4 | 0.00 | 0.00 | 0.00 | 72 | 1004.2 |
| 20260505170920 | 26 | 180 | 22.5 | 37.0 | 0.00 | 0.00 | 0.00 | 70 | 1004.1 |
| 20260505170417 | 26 | 189 | 19.3 | 29.0 | 0.00 | 0.00 | 0.00 | 71 | 1003.9 |
| 20260505165912 | 25 | 180 | 24.1 | 30.6 | 0.00 | 0.00 | 0.00 | 72 | 1004.3 |
| 20260505165408 | 25 | 182 | 24.1 | 29.0 | 0.00 | 0.00 | 0.00 | 73 | 1004.4 |
| 20260505164903 | 25 | 205 | 24.1 | 29.0 | 0.00 | 0.00 | 0.00 | 73 | 1004.4 |
| 20260505164400 | 25 | 185 | 16.1 | 30.6 | 0.00 | 0.00 | 0.00 | 74 | 1004.3 |
| 20260505163859 | 25 | 200 | 19.3 | 38.6 | 0.00 | 0.00 | 0.00 | 74 | 1004.3 |
| 20260505163357 | 25 | 211 | 19.3 | 33.8 | 0.00 | 0.00 | 0.00 | 74 | 1004.0 |
| 20260505162855 | 25 | 189 | 20.9 | 30.6 | 0.00 | 0.00 | 0.00 | 75 | 1003.9 |
| 20260505162351 | 25 | 213 | 22.5 | 27.4 | 0.00 | 0.00 | 0.00 | 75 | 1004.0 |
| 20260505161848 | 25 | 207 | 22.5 | 37.0 | 0.00 | 0.00 | 0.00 | 75 | 1003.8 |
| 20260505161345 | 24 | 172 | 20.9 | 27.4 | 0.00 | 0.00 | 0.00 | 76 | 1003.7 |
| 20260505160842 | 24 | 134 | 30.6 | 38.6 | 0.00 | 0.00 | 0.00 | 76 | 1003.8 |
| 20260505160341 | 24 | 187 | 20.9 | 30.6 | 0.00 | 0.00 | 0.00 | 77 | 1003.7 |
| 20260505153320 | 23 | 207 | 17.7 | 25.7 | 0.00 | 0.00 | 0.00 | 78 | 1004.0 |
| 20260505152817 | 23 | 186 | 14.5 | 27.4 | 0.00 | 0.00 | 0.00 | 79 | 1004.0 |
| 20260505152314 | 23 | 147 | 17.7 | 25.7 | 0.00 | 0.00 | 0.00 | 79 | 1004.2 |
| 20260505151813 | 23 | 208 | 14.5 | 27.4 | 0.00 | 0.00 | 0.00 | 79 | 1004.0 |
| 20260505151310 | 23 | 215 | 20.9 | 29.0 | 0.00 | 0.00 | 0.00 | 79 | 1004.0 |
| 20260505150807 | 23 | 203 | 25.7 | 29.0 | 0.00 | 0.00 | 0.00 | 79 | 1004.1 |
| 20260505150305 | 23 | 201 | 19.3 | 27.4 | 0.00 | 0.00 | 0.00 | 80 | 1004.1 |
| 20260505140229 | 22 | 196 | 14.5 | 25.7 | 0.00 | 0.00 | 0.00 | 84 | 1003.9 |
| 20260505130153 | 21 | 181 | 12.9 | 20.9 | 0.00 | 0.00 | 0.00 | 85 | 1003.9 |
| 20260505124642 | 21 | 189 | 17.7 | 22.5 | 0.00 | 0.00 | 0.00 | 86 | 1003.6 |
| 20260505124139 | 21 | 179 | 16.1 | 22.5 | 0.00 | 0.00 | 0.00 | 86 | 1003.7 |
| 20260505123635 | 21 | 150 | 11.3 | 20.9 | 0.00 | 0.00 | 0.00 | 86 | 1003.7 |
| 20260505123132 | 21 | 190 | 12.9 | 22.5 | 0.00 | 0.00 | 0.00 | 85 | 1003.8 |
| 20260505122629 | 21 | 165 | 16.1 | 22.5 | 0.00 | 0.00 | 0.00 | 85 | 1003.7 |
| 20260505122126 | 21 | 200 | 11.3 | 20.9 | 0.00 | 0.00 | 0.00 | 85 | 1003.5 |
| 20260505121622 | 21 | 174 | 12.9 | 24.1 | 0.00 | 0.00 | 0.00 | 85 | 1003.3 |
| 20260505121119 | 21 | 194 | 16.1 | 22.5 | 0.00 | 0.00 | 0.00 | 85 | 1003.4 |
| 20260505120615 | 21 | 162 | 22.5 | 27.4 | 0.00 | 0.00 | 0.00 | 85 | 1003.2 |
| 20260505120112 | 21 | 143 | 11.3 | 27.4 | 0.00 | 0.00 | 0.00 | 86 | 1003.3 |
| 20260505115606 | 21 | 162 | 11.3 | 24.1 | 0.00 | 0.00 | 0.00 | 86 | 1003.4 |
| 20260505115104 | 20 | 180 | 17.7 | 24.1 | 0.00 | 0.00 | 0.00 | 86 | 1003.5 |
| 20260505114600 | 20 | 202 | 9.7 | 20.9 | 0.00 | 0.00 | 0.00 | 85 | 1003.2 |
| 20260505114056 | 20 | 153 | 12.9 | 20.9 | 0.00 | 0.00 | 0.00 | 85 | 1003.2 |
| 20260505113553 | 20 | 180 | 14.5 | 24.1 | 0.00 | 0.00 | 0.00 | 85 | 1003.1 |
| 20260505113050 | 20 | 178 | 14.5 | 22.5 | 0.00 | 0.00 | 0.00 | 86 | 1003.0 |
| 20260505112546 | 20 | 200 | 11.3 | 30.6 | 0.00 | 0.00 | 0.00 | 86 | 1003.2 |
| 20260505112045 | 20 | 193 | 16.1 | 22.5 | 0.00 | 0.00 | 0.00 | 86 | 1002.9 |
| 20260505111538 | 20 | 149 | 11.3 | 22.5 | 0.00 | 0.00 | 0.00 | 86 | 1002.7 |
| 20260505111035 | 20 | 178 | 16.1 | 20.9 | 0.00 | 0.00 | 0.00 | 85 | 1002.5 |
| 20260505110531 | 20 | 165 | 17.7 | 27.4 | 0.00 | 0.00 | 0.00 | 85 | 1002.8 |